When you browse on this site, cookies collect data to enhance your experience and personalize the content and advertising you see.
Visit our Privacy Policy to learn more. By continuing to use the site, you agree to this use of cookies and data.
  • în România
  • Lista ţărilor
  • Pe 7 zile
  • Temperatura apei
  • Hartă satelitară
  • Meteo pe hartă
  • Widget-uri
  • user-avatar
    Intrare

    Meteo pe oră la Debrecen

    Astăzi, 16 Ianuarie, Miercuri

    Timp Temperatura Precipitaţii Vânt Presiune Umiditate
    00:00 -2°C° 0.1 mm 7 m/s 747 mmHg 84%
    01:00 -1°C° 0 mm 4 m/s 746 mmHg 89%
    02:00 -1°C° 0.1 mm 5 m/s 746 mmHg 88%
    03:00 -2°C° 0.1 mm 6 m/s 746 mmHg 87%
    04:00 -1°C° 0.1 mm 8 m/s 746 mmHg 86%
    05:00 -1°C° 0.1 mm 7 m/s 746 mmHg 86%
    06:00 -1°C° 0.1 mm 7 m/s 747 mmHg 87%
    07:00 -1°C° 0 mm 6 m/s 747 mmHg 88%
    08:00 0°C° 0.1 mm 5 m/s 747 mmHg 90%
    09:00 0°C° 0.1 mm 5 m/s 747 mmHg 92%
    10:00 0°C° 0.1 mm 4 m/s 748 mmHg 94%
    11:00 0°C° 0 mm 4 m/s 748 mmHg 96%
    12:00 +1°C° 0 mm 4 m/s 748 mmHg 97%
    13:00 +3°C° 0 mm 2 m/s 748 mmHg 99%
    14:00 +1°C° 0 mm 3 m/s 748 mmHg 98%
    15:00 +1°C° 0 mm 3 m/s 749 mmHg 98%
    16:00 0°C° 0 mm 3 m/s 749 mmHg 97%
    17:00 -1°C° 0 mm 4 m/s 749 mmHg 96%
    18:00 -1°C° 0 mm 4 m/s 750 mmHg 95%
    19:00 -1°C° 0 mm 4 m/s 750 mmHg 94%
    20:00 -2°C° 0 mm 5 m/s 750 mmHg 93%
    21:00 -2°C° 0 mm 5 m/s 750 mmHg 92%
    22:00 -3°C° 0 mm 6 m/s 750 mmHg 92%
    23:00 -3°C° 0 mm 6 m/s 750 mmHg 90%

    Mâine, 17 Ianuarie, Joi

    Timp Temperatura Precipitaţii Vânt Presiune Umiditate
    00:00 -3°C° 0 mm 6 m/s 750 mmHg 89%
    01:00 -3°C° 0 mm 6 m/s 750 mmHg 88%
    02:00 -3°C° 0 mm 6 m/s 750 mmHg 89%
    03:00 -3°C° 0 mm 6 m/s 750 mmHg 90%
    04:00 -3°C° 0 mm 6 m/s 750 mmHg 90%
    05:00 -3°C° 0 mm 6 m/s 750 mmHg 89%
    06:00 -3°C° 0 mm 6 m/s 749 mmHg 88%
    07:00 -3°C° 0 mm 6 m/s 749 mmHg 87%
    08:00 -2°C° 0 mm 6 m/s 749 mmHg 87%
    09:00 -2°C° 0 mm 6 m/s 750 mmHg 86%
    10:00 -1°C° 0 mm 6 m/s 750 mmHg 86%
    11:00 -1°C° 0 mm 6 m/s 749 mmHg 86%
    12:00 -1°C° 0 mm 6 m/s 749 mmHg 87%
    13:00 -1°C° 0 mm 6 m/s 749 mmHg 87%
    14:00 -1°C° 0 mm 6 m/s 749 mmHg 87%
    15:00 +1°C° 0 mm 6 m/s 749 mmHg 87%
    16:00 +1°C° 0 mm 6 m/s 749 mmHg 88%
    17:00 +1°C° 0 mm 6 m/s 748 mmHg 87%
    18:00 +1°C° 0 mm 6 m/s 748 mmHg 86%
    19:00 +1°C° 0 mm 6 m/s 748 mmHg 86%
    20:00 +1°C° 0.1 mm 6 m/s 748 mmHg 85%
    21:00 -1°C° 0.1 mm 6 m/s 748 mmHg 85%
    22:00 -1°C° 0.1 mm 6 m/s 748 mmHg 84%
    23:00 -1°C° 0.4 mm 6 m/s 747 mmHg 86%

    Poimâine, 18 Ianuarie, Vineri

    Timp Temperatura Precipitaţii Vânt Presiune Umiditate
    00:00 -1°C° 0.4 mm 6 m/s 747 mmHg 87%
    01:00 -1°C° 0.4 mm 6 m/s 747 mmHg 89%
    02:00 -1°C° 0.8 mm 6 m/s 747 mmHg 89%
    03:00 -1°C° 0.8 mm 6 m/s 747 mmHg 89%
    04:00 -1°C° 0.8 mm 6 m/s 747 mmHg 89%
    05:00 -1°C° 0.1 mm 6 m/s 747 mmHg 90%
    06:00 -1°C° 0.1 mm 6 m/s 747 mmHg 92%
    07:00 0°C° 0.1 mm 5 m/s 747 mmHg 94%
    08:00 0°C° 0 mm 5 m/s 748 mmHg 93%
    09:00 +1°C° 0 mm 5 m/s 748 mmHg 93%
    10:00 +1°C° 0 mm 4 m/s 749 mmHg 92%
    11:00 +1°C° 0 mm 4 m/s 749 mmHg 88%
    12:00 +3°C° 0 mm 4 m/s 750 mmHg 84%
    13:00 +3°C° 0 mm 4 m/s 750 mmHg 79%
    14:00 +1°C° 0 mm 4 m/s 751 mmHg 79%
    15:00 +1°C° 0 mm 4 m/s 751 mmHg 79%
    16:00 0°C° 0 mm 4 m/s 752 mmHg 79%
    17:00 0°C° 0 mm 3 m/s 752 mmHg 80%
    18:00 -1°C° 0 mm 2 m/s 753 mmHg 82%
    19:00 0°C° 0 mm 1 m/s 754 mmHg 84%
    20:00 0°C° 0 mm 1 m/s 754 mmHg 84%
    21:00 -2°C° 0 mm 2 m/s 755 mmHg 84%
    22:00 -2°C° 0 mm 2 m/s 755 mmHg 84%
    23:00 -2°C° 0 mm 2 m/s 755 mmHg 83%

    19 Ianuarie, Sâmbătă

    Timp Temperatura Precipitaţii Vânt Presiune Umiditate
    00:00 -2°C° 0 mm 2 m/s 756 mmHg 82%
    01:00 -3°C° 0 mm 2 m/s 756 mmHg 81%
    02:00 -3°C° 0 mm 2 m/s 756 mmHg 82%
    03:00 -3°C° 0 mm 2 m/s 756 mmHg 83%
    04:00 -4°C° 0 mm 3 m/s 756 mmHg 83%
    05:00 -4°C° 0 mm 3 m/s 756 mmHg 83%
    06:00 -4°C° 0 mm 3 m/s 756 mmHg 82%
    07:00 -5°C° 0 mm 3 m/s 756 mmHg 82%
    08:00 -4°C° 0 mm 3 m/s 756 mmHg 78%
    09:00 -3°C° 0 mm 4 m/s 755 mmHg 75%
    10:00 -3°C° 0 mm 4 m/s 755 mmHg 71%
    11:00 -2°C° 0 mm 4 m/s 755 mmHg 70%
    12:00 -2°C° 0 mm 4 m/s 754 mmHg 68%
    13:00 -1°C° 0 mm 4 m/s 754 mmHg 67%
    14:00 -1°C° 0 mm 4 m/s 753 mmHg 69%
    15:00 -2°C° 0 mm 4 m/s 753 mmHg 72%
    16:00 -1°C° 0 mm 3 m/s 753 mmHg 75%
    17:00 -1°C° 0.1 mm 3 m/s 752 mmHg 77%
    18:00 -1°C° 0.1 mm 3 m/s 752 mmHg 79%
    19:00 -1°C° 0.1 mm 3 m/s 752 mmHg 81%
    20:00 -3°C° 0.3 mm 4 m/s 752 mmHg 85%
    21:00 -3°C° 0.3 mm 4 m/s 752 mmHg 88%
    22:00 -3°C° 0.3 mm 4 m/s 751 mmHg 92%
    23:00 -2°C° 0.9 mm 3 m/s 751 mmHg 93%

    20 Ianuarie, Duminică

    Timp Temperatura Precipitaţii Vânt Presiune Umiditate
    00:00 -2°C° 0.9 mm 3 m/s 751 mmHg 95%
    01:00 -2°C° 0.9 mm 3 m/s 750 mmHg 96%
    02:00 -1°C° 0.6 mm 2 m/s 750 mmHg 96%
    03:00 -1°C° 0.6 mm 2 m/s 750 mmHg 97%
    04:00 +1°C° 0.6 mm 1 m/s 749 mmHg 97%
    05:00 +1°C° 0.6 mm 1 m/s 749 mmHg 97%
    06:00 +1°C° 0.6 mm 1 m/s 749 mmHg 97%
    07:00 +1°C° 0.6 mm 1 m/s 749 mmHg 97%
    08:00 +1°C° 0.5 mm 1 m/s 749 mmHg 97%
    09:00 +1°C° 0.5 mm 1 m/s 750 mmHg 98%
    10:00 +1°C° 0.5 mm 1 m/s 750 mmHg 98%
    11:00 +1°C° 0.1 mm 1 m/s 750 mmHg 99%
    12:00 +1°C° 0.1 mm 1 m/s 750 mmHg 99%
    13:00 +1°C° 0.1 mm 1 m/s 750 mmHg 99%
    14:00 +1°C° 0 mm 1 m/s 750 mmHg 97%
    15:00 +1°C° 0 mm 1 m/s 750 mmHg 96%
    16:00 +1°C° 0 mm 1 m/s 750 mmHg 94%
    17:00 +1°C° 0 mm 1 m/s 751 mmHg 94%
    18:00 0°C° 0 mm 1 m/s 751 mmHg 93%
    19:00 0°C° 0 mm 1 m/s 751 mmHg 93%
    20:00 -1°C° 0 mm 1 m/s 752 mmHg 93%
    21:00 -3°C° 0 mm 2 m/s 752 mmHg 93%
    22:00 -3°C° 0 mm 2 m/s 752 mmHg 93%
    23:00 -1°C° 0 mm 1 m/s 753 mmHg 93%

    21 Ianuarie, Luni

    Timp Temperatura Precipitaţii Vânt Presiune Umiditate
    00:00 -1°C° 0 mm 1 m/s 753 mmHg 93%
    01:00 -1°C° 0 mm 1 m/s 753 mmHg 93%
    02:00 -2°C° 0 mm 1 m/s 753 mmHg 92%
    03:00 -2°C° 0 mm 1 m/s 753 mmHg 91%
    04:00 -2°C° 0 mm 1 m/s 753 mmHg 90%
    05:00 -3°C° 0 mm 1 m/s 754 mmHg 89%
    06:00 -3°C° 0 mm 1 m/s 754 mmHg 88%
    07:00 -3°C° 0 mm 1 m/s 755 mmHg 87%
    08:00 -3°C° 0 mm 1 m/s 755 mmHg 85%
    09:00 -4°C° 0 mm 2 m/s 755 mmHg 83%
    10:00 -3°C° 0 mm 2 m/s 756 mmHg 81%
    11:00 -3°C° 0 mm 2 m/s 756 mmHg 80%
    12:00 -2°C° 0 mm 3 m/s 756 mmHg 79%
    13:00 -2°C° 0 mm 3 m/s 756 mmHg 78%
    14:00 -2°C° 0 mm 3 m/s 756 mmHg 80%
    15:00 -4°C° 0 mm 3 m/s 756 mmHg 82%
    16:00 -4°C° 0 mm 3 m/s 756 mmHg 84%
    17:00 -5°C° 0 mm 3 m/s 756 mmHg 85%
    18:00 -5°C° 0 mm 3 m/s 757 mmHg 87%
    19:00 -6°C° 0 mm 3 m/s 757 mmHg 88%
    20:00 -7°C° 0 mm 4 m/s 757 mmHg 87%
    21:00 -7°C° 0 mm 5 m/s 757 mmHg 86%
    22:00 -7°C° 0 mm 5 m/s 757 mmHg 85%
    23:00 -7°C° 0 mm 5 m/s 757 mmHg 84%
    Arată mai mult